When you browse on this site, cookies collect data to enhance your experience and personalize the content and advertising you see.
Visit our Privacy Policy to learn more. By continuing to use the site, you agree to this use of cookies and data.
  • Em Portugal
  • Lista de países
  • Para 7 dias
  • Temperatura da água
  • Mapas de satélite
  • Mapa do tempo
  • Widgets de tempo
  • user-avatar
    Iniciar Sessão

    Previsão horária em Chegodaevo

    Hoje, 16 Novembro, Sexta-feira

    Tempo Temperatura Precipitação Vento Pressão Humidade
    00:00 -3°C° 0 mm 2 m/s 765 mmHg 41%
    01:00 -3°C° 0 mm 2 m/s 766 mmHg 39%
    02:00 -4°C° 0 mm 2 m/s 766 mmHg 40%
    03:00 -4°C° 0 mm 2 m/s 766 mmHg 38%
    04:00 -4°C° 0 mm 2 m/s 766 mmHg 36%
    05:00 -4°C° 0 mm 2 m/s 767 mmHg 34%
    06:00 -4°C° 0 mm 2 m/s 767 mmHg 33%
    07:00 -4°C° 0 mm 2 m/s 767 mmHg 32%
    08:00 -4°C° 0 mm 2 m/s 767 mmHg 30%
    09:00 -3°C° 0 mm 2 m/s 768 mmHg 28%
    10:00 -2°C° 0 mm 2 m/s 768 mmHg 26%
    11:00 -1°C° 0 mm 2 m/s 768 mmHg 23%
    12:00 -1°C° 0 mm 2 m/s 768 mmHg 24%
    13:00 +1°C° 0 mm 2 m/s 768 mmHg 25%
    14:00 +2°C° 0 mm 1 m/s 768 mmHg 30%
    15:00 +1°C° 0 mm 1 m/s 768 mmHg 31%
    16:00 -2°C° 0 mm 2 m/s 768 mmHg 32%
    17:00 -3°C° 0 mm 2 m/s 768 mmHg 32%
    18:00 -3°C° 0 mm 2 m/s 768 mmHg 31%
    19:00 -3°C° 0 mm 2 m/s 768 mmHg 30%
    20:00 -3°C° 0 mm 2 m/s 768 mmHg 29%
    21:00 -3°C° 0 mm 2 m/s 768 mmHg 28%
    22:00 -3°C° 0 mm 2 m/s 768 mmHg 27%
    23:00 -3°C° 0 mm 2 m/s 768 mmHg 26%

    Amanhã, 17 Novembro, Sábado

    Tempo Temperatura Precipitação Vento Pressão Humidade
    00:00 -1°C° 0 mm 1 m/s 768 mmHg 26%
    01:00 -1°C° 0 mm 1 m/s 768 mmHg 25%
    02:00 -1°C° 0 mm 1 m/s 768 mmHg 24%
    03:00 -1°C° 0 mm 1 m/s 767 mmHg 24%
    04:00 -2°C° 0 mm 1 m/s 767 mmHg 24%
    05:00 -2°C° 0 mm 1 m/s 767 mmHg 23%
    06:00 -1°C° 0 mm 1 m/s 767 mmHg 23%
    07:00 -1°C° 0 mm 1 m/s 766 mmHg 23%
    08:00 -1°C° 0 mm 1 m/s 766 mmHg 23%
    09:00 0°C° 0 mm 1 m/s 766 mmHg 22%
    10:00 +1°C° 0 mm 1 m/s 766 mmHg 21%
    11:00 +2°C° 0 mm 1 m/s 765 mmHg 20%
    12:00 +2°C° 0 mm 1 m/s 764 mmHg 21%
    13:00 +2°C° 0 mm 1 m/s 764 mmHg 23%
    14:00 +1°C° 0 mm 2 m/s 763 mmHg 24%
    15:00 -1°C° 0 mm 2 m/s 763 mmHg 26%
    16:00 -1°C° 0 mm 2 m/s 762 mmHg 27%
    17:00 -2°C° 0 mm 2 m/s 762 mmHg 28%
    18:00 -2°C° 0 mm 3 m/s 761 mmHg 30%
    19:00 -2°C° 0 mm 3 m/s 760 mmHg 31%
    20:00 -2°C° 0 mm 3 m/s 760 mmHg 32%
    21:00 -2°C° 0 mm 3 m/s 759 mmHg 34%
    22:00 -3°C° 0 mm 4 m/s 758 mmHg 36%
    23:00 -3°C° 0 mm 4 m/s 757 mmHg 38%

    Depois de amanhã, 18 Novembro, Domingo

    Tempo Temperatura Precipitação Vento Pressão Humidade
    00:00 -3°C° 0 mm 4 m/s 757 mmHg 40%
    01:00 -3°C° 0 mm 4 m/s 756 mmHg 43%
    02:00 -2°C° 0 mm 4 m/s 755 mmHg 46%
    03:00 -3°C° 0 mm 4 m/s 754 mmHg 50%
    04:00 -3°C° 0 mm 4 m/s 753 mmHg 54%
    05:00 -3°C° 0 mm 4 m/s 752 mmHg 58%
    06:00 -3°C° 0.1 mm 4 m/s 752 mmHg 65%
    07:00 -3°C° 0.1 mm 4 m/s 752 mmHg 71%
    08:00 -3°C° 0.1 mm 4 m/s 751 mmHg 77%
    09:00 -3°C° 0.1 mm 4 m/s 751 mmHg 79%
    10:00 -1°C° 0.1 mm 3 m/s 751 mmHg 81%
    11:00 -1°C° 0.1 mm 3 m/s 750 mmHg 83%
    12:00 -1°C° 0 mm 3 m/s 750 mmHg 83%
    13:00 -1°C° 0 mm 3 m/s 750 mmHg 84%
    14:00 -1°C° 0 mm 2 m/s 750 mmHg 84%
    15:00 -1°C° 0 mm 2 m/s 750 mmHg 86%
    16:00 -1°C° 0 mm 2 m/s 750 mmHg 88%
    17:00 -1°C° 0 mm 2 m/s 750 mmHg 90%
    18:00 -1°C° 0 mm 2 m/s 750 mmHg 90%
    19:00 -1°C° 0 mm 2 m/s 750 mmHg 91%
    20:00 +1°C° 0 mm 1 m/s 750 mmHg 91%
    21:00 0°C° 0 mm 1 m/s 750 mmHg 92%
    22:00 0°C° 0 mm 1 m/s 750 mmHg 93%
    23:00 0°C° 0 mm 1 m/s 750 mmHg 94%

    19 Novembro, Segunda-feira

    Tempo Temperatura Precipitação Vento Pressão Humidade
    00:00 0°C° 0 mm 1 m/s 751 mmHg 94%
    01:00 0°C° 0 mm 1 m/s 751 mmHg 94%
    02:00 -1°C° 0 mm 1 m/s 751 mmHg 95%
    03:00 0°C° 0.1 mm 1 m/s 751 mmHg 94%
    04:00 0°C° 0.1 mm 1 m/s 752 mmHg 94%
    05:00 0°C° 0.1 mm 1 m/s 752 mmHg 93%
    06:00 0°C° 0.1 mm 1 m/s 752 mmHg 93%
    07:00 0°C° 0.1 mm 1 m/s 753 mmHg 93%
    08:00 -2°C° 0.1 mm 2 m/s 753 mmHg 93%
    09:00 -1°C° 0.1 mm 2 m/s 753 mmHg 89%
    10:00 -1°C° 0.1 mm 2 m/s 754 mmHg 86%
    11:00 -1°C° 0.1 mm 2 m/s 754 mmHg 83%
    12:00 -1°C° 0.1 mm 2 m/s 755 mmHg 80%
    13:00 -1°C° 0.1 mm 2 m/s 755 mmHg 77%
    14:00 -1°C° 0.1 mm 2 m/s 755 mmHg 75%
    15:00 -1°C° 0 mm 2 m/s 755 mmHg 75%
    16:00 -2°C° 0 mm 2 m/s 755 mmHg 75%
    17:00 -3°C° 0 mm 2 m/s 755 mmHg 75%
    18:00 -3°C° 0 mm 2 m/s 756 mmHg 73%
    19:00 -4°C° 0 mm 3 m/s 756 mmHg 70%
    20:00 -4°C° 0 mm 3 m/s 756 mmHg 68%
    21:00 -4°C° 0 mm 3 m/s 756 mmHg 67%
    22:00 -4°C° 0 mm 3 m/s 757 mmHg 66%
    23:00 -4°C° 0 mm 3 m/s 757 mmHg 66%

    20 Novembro, Terça-feira

    Tempo Temperatura Precipitação Vento Pressão Humidade
    00:00 -4°C° 0 mm 3 m/s 757 mmHg 68%
    01:00 -2°C° 0 mm 3 m/s 757 mmHg 70%
    02:00 -2°C° 0 mm 3 m/s 757 mmHg 72%
    03:00 -2°C° 0.1 mm 3 m/s 757 mmHg 77%
    04:00 -3°C° 0.1 mm 4 m/s 757 mmHg 81%
    05:00 -4°C° 0.1 mm 4 m/s 757 mmHg 85%
    06:00 -3°C° 0.1 mm 4 m/s 757 mmHg 86%
    07:00 -3°C° 0.1 mm 4 m/s 756 mmHg 86%
    08:00 -3°C° 0.1 mm 4 m/s 756 mmHg 86%
    09:00 -3°C° 0.2 mm 4 m/s 756 mmHg 86%
    10:00 -3°C° 0.2 mm 4 m/s 756 mmHg 85%
    11:00 -2°C° 0.2 mm 4 m/s 756 mmHg 85%
    12:00 -2°C° 0.3 mm 4 m/s 755 mmHg 86%
    13:00 -2°C° 0.3 mm 4 m/s 755 mmHg 88%
    14:00 -2°C° 0.3 mm 4 m/s 755 mmHg 89%
    15:00 -1°C° 0.2 mm 3 m/s 754 mmHg 90%
    16:00 -1°C° 0.2 mm 3 m/s 754 mmHg 91%
    17:00 -1°C° 0.2 mm 3 m/s 754 mmHg 91%
    18:00 -1°C° 0.1 mm 3 m/s 754 mmHg 92%
    19:00 -1°C° 0.1 mm 3 m/s 754 mmHg 92%
    20:00 -1°C° 0.1 mm 2 m/s 754 mmHg 92%
    21:00 -1°C° 0 mm 2 m/s 754 mmHg 93%
    22:00 -1°C° 0 mm 2 m/s 754 mmHg 93%
    23:00 -1°C° 0 mm 2 m/s 754 mmHg 94%

    21 Novembro, Quarta-feira

    Tempo Temperatura Precipitação Vento Pressão Humidade
    00:00 -2°C° 0 mm 2 m/s 754 mmHg 94%
    01:00 -2°C° 0 mm 2 m/s 754 mmHg 94%
    02:00 -2°C° 0 mm 2 m/s 754 mmHg 94%
    03:00 -2°C° 0 mm 2 m/s 753 mmHg 94%
    04:00 -2°C° 0 mm 2 m/s 753 mmHg 94%
    05:00 -2°C° 0 mm 2 m/s 753 mmHg 93%
    06:00 -2°C° 0 mm 3 m/s 753 mmHg 93%
    07:00 -2°C° 0 mm 3 m/s 753 mmHg 92%
    08:00 -2°C° 0 mm 3 m/s 754 mmHg 92%
    09:00 -2°C° 0 mm 3 m/s 754 mmHg 90%
    10:00 -1°C° 0 mm 3 m/s 754 mmHg 89%
    11:00 -2°C° 0 mm 4 m/s 754 mmHg 87%
    12:00 -2°C° 0 mm 4 m/s 753 mmHg 87%
    13:00 -2°C° 0 mm 4 m/s 753 mmHg 87%
    14:00 -2°C° 0 mm 4 m/s 753 mmHg 87%
    15:00 -3°C° 0 mm 4 m/s 753 mmHg 87%
    16:00 -3°C° 0 mm 4 m/s 753 mmHg 88%
    17:00 -3°C° 0 mm 4 m/s 753 mmHg 88%
    18:00 -3°C° 0 mm 4 m/s 753 mmHg 88%
    19:00 -3°C° 0 mm 4 m/s 753 mmHg 88%
    20:00 -4°C° 0 mm 4 m/s 754 mmHg 89%
    21:00 -4°C° 0 mm 5 m/s 754 mmHg 88%
    22:00 -4°C° 0 mm 5 m/s 754 mmHg 87%
    23:00 -4°C° 0 mm 5 m/s 754 mmHg 86%
    Mostrar mais